Hourly Data Report for October 26, 2013

All times are specified in Local Standard Time (LST). Add 1 hour to adjust for Daylight Saving Time where and when it is observed.

PANGNIRTUNG
NUNAVUT

66°08'36.300" N
65°42'40.500" W
22.60 m
2403049
71826
WXP

Download Data

Hourly Data (October 2013)
Hourly Data Report for October 26, 2013
Temp Definition
°C
Dew Point Temp Definition
°C
Rel Hum Definition
%
Wind Dir Definition
10's deg

Wind Spd Definition
km/h
Visibility Definition
km
Stn Press Definition
kPa
Hmdx Definition


Wind Chill Definition


Weather Definition


TIME
00:00 -6.3 -9.9 76 12 6   99.72   -9 LegendNANA
01:00 -6.6 -9.5 80 12 11   99.72   -12 LegendNANA
02:00 -7.5 -10.1 82 15 19   99.73   -15 LegendNANA
03:00 -7.3 -9.8 82 12 13   99.72   -13 LegendNANA
04:00 -7.5 -10.3 80 16 13   99.71   -13 LegendNANA
05:00 -7.8 -10.4 82 14 11   99.71   -13 LegendNANA
06:00 -8.4 -10.9 82 14 7   99.72   -12 LegendNANA
07:00 -8.2 -10.8 81 13 6   99.72   -11 LegendNANA
08:00 -8.0 -10.5 82 12 6   99.71   -11 LegendNANA
09:00 -8.8 -11.3 82 14 4   99.69   -11 LegendNANA
10:00 -7.5 -10.8 77 7 4   99.68   -10 LegendNANA
11:00 -7.1 -10.7 75 10 2   99.67   -8 LegendNANA
12:00 -6.7 -10.8 73   0   99.66     LegendNANA
13:00 -6.9 -9.8 80 20 4   99.68   -9 LegendNANA
14:00 -6.5 -10.2 75 10 2   99.69   -7 LegendNANA
15:00 -6.5 -9.8 77 34 4   99.71   -8 LegendNANA
16:00 -6.6 -9.4 80 16 4   99.71   -9 LegendNANA
17:00 -6.7 -9.8 79 15 6   99.72   -10 LegendNANA
18:00 -7.2 -9.6 83 12 15   99.73   -13 LegendNANA
19:00 -7.2 -9.9 81 16 7   99.75   -11 LegendNANA
20:00 -7.2 -9.6 83 8 6   99.76   -10 LegendNANA
21:00 -7.2 -9.6 83 15 4   99.77   -9 LegendNANA
22:00 -7.3 -9.4 85 10 7   99.78   -11 LegendNANA
23:00 -7.3 -9.7 83 29 4   99.79   -9 LegendNANA

Notes on Data Quality.

Legend

  • E = Estimated
  • M = Missing
  • NA = Not Available
  • ‡ = Partner data that is not subject to review by the National Climate Archives
Date modified: